Kirksville, MO

10:59 AM CDT on May 24, 2017 (GMT -0500)
Kirksville Regional

Weather History for KIRK - January, 2014

Change the Weather History Date:

Monday, January 13, 2014

  Actual Average Record
Temperature  
Mean Temperature 37 °F 26 °F  
Max Temperature 45 °F 35 °F 60 °F (1961)
Min Temperature 28 °F 17 °F -9 °F (1918)
Degree Days  
Heating Degree Days 28 39  
Month to date heating degree days 417 507  
Since 1 July heating degree days 2908 2850  
Cooling Degree Days 0 0  
Month to date cooling degree days 0 0  
Year to date cooling degree days 0 0  
Moisture  
Dew Point 28 °F    
Average Humidity 75    
Maximum Humidity 92    
Minimum Humidity 57    
Precipitation  
Precipitation 0.00 in 0.03 in 0.94 in (1950)
Month to date precipitation 0.67 0.39  
Year to date precipitation 0.67 0.39  
Sea Level Pressure  
Sea Level Pressure 29.77 in    
Wind  
Wind Speed 9 mph (West)    
Max Wind Speed 17 mph    
Max Gust Speed 23 mph    
Visibility 10 miles    
Events      
T = Trace of Precipitation, MM = Missing Value Source: NWS Daily Summary

Daily Weather History Graph

Daily Weather History Graph

Search for Another Location

Airport or City:

Trip Planner

Search our weather history database for the weather conditions in past years. The results will help you decide how hot, cold, wet, or windy it might be!

Date:

Astronomy

Jan. 13, 2014 Rise Set
Actual Time 7:31 AM CST 5:07 PM CST
Civil Twilight 7:01 AM CST 5:36 PM CST
Nautical Twilight 6:27 AM CST 6:10 PM CST
Astronomical Twilight 5:55 AM CST 6:43 PM CST
Moon 3:22 PM CST (1/13) 5:20 AM CST (1/13)
Length of Visible Light 10h 35m
Length of Day
9h 36m
Waxing Gibbous, 95% of the Moon is Illuminated
Jan 13
Waxing Gibbous
Jan 15
Full
Jan 23
Last Quarter
Jan 30
New
Feb 6
First Quarter

Hourly Weather History & Observations

Time (CST) Temp. Windchill Dew Point Humidity Pressure Visibility Wind Dir Wind Speed Gust Speed Precip Events Conditions
12:55 AM 34.0 °F 28.0 °F 28.9 °F 82% 29.60 in 10.0 mi NW 6.9 mph - N/A   Clear
1:55 AM 36.0 °F 29.6 °F 30.0 °F 79% 29.63 in 10.0 mi NW 8.1 mph - N/A   Clear
2:55 AM 35.1 °F 28.6 °F 30.0 °F 82% 29.63 in 10.0 mi WNW 8.1 mph - N/A   Clear
3:55 AM 32.0 °F 28.7 °F 28.0 °F 85% 29.65 in 10.0 mi West 3.5 mph - N/A   Clear
4:55 AM 30.9 °F 26.2 °F 28.0 °F 89% 29.67 in 10.0 mi West 4.6 mph - N/A   Mostly Cloudy
5:55 AM 36.0 °F 33.3 °F 30.0 °F 79% 29.68 in 10.0 mi WSW 3.5 mph - N/A   Overcast
6:55 AM 36.0 °F 31.1 °F 30.9 °F 82% 29.70 in 10.0 mi West 5.8 mph - N/A   Overcast
7:55 AM 37.0 °F 31.0 °F 30.9 °F 79% 29.73 in 10.0 mi West 8.1 mph - N/A   Overcast
8:55 AM 41.0 °F 34.3 °F 32.0 °F 70% 29.75 in 10.0 mi WNW 11.5 mph - N/A   Clear
9:55 AM 43.0 °F 36.8 °F 32.0 °F 65% 29.77 in 10.0 mi WNW 11.5 mph - N/A   Clear
10:55 AM 44.1 °F 37.7 °F 32.0 °F 63% 29.80 in 10.0 mi WNW 12.7 mph - N/A   Clear
11:55 AM 45.0 °F 38.2 °F 32.0 °F 60% 29.80 in 10.0 mi West 15.0 mph - N/A   Clear
12:26 PM 45.0 °F 38.2 °F 33.1 °F 63% 29.77 in 10.0 mi West 15.0 mph - N/A   Mostly Cloudy
12:55 PM 42.1 °F 33.9 °F 32.0 °F 67% 29.80 in 10.0 mi NW 17.3 mph - N/A   Mostly Cloudy
1:19 PM 39.9 °F 31.4 °F 30.0 °F 68% 29.77 in 10.0 mi NW 16.1 mph - N/A   Scattered Clouds
1:55 PM 39.9 °F 32.1 °F 28.9 °F 65% 29.81 in 10.0 mi NW 13.8 mph - N/A   Partly Cloudy
2:55 PM 42.1 °F 37.1 °F 28.9 °F 60% 29.81 in 10.0 mi WNW 8.1 mph - N/A   Clear
3:55 PM 42.1 °F 36.1 °F 28.0 °F 58% 29.83 in 10.0 mi WNW 10.4 mph - N/A   Clear
4:55 PM 37.9 °F 30.5 °F 28.0 °F 68% 29.86 in 10.0 mi West 11.5 mph - N/A   Clear
5:55 PM 33.1 °F 26.9 °F 25.0 °F 72% 29.87 in 10.0 mi West 6.9 mph - N/A   Clear
6:55 PM 30.0 °F 24.1 °F 24.1 °F 79% 29.88 in 10.0 mi WSW 5.8 mph - N/A   Clear
7:55 PM 30.9 °F 25.2 °F 24.1 °F 76% 29.87 in 10.0 mi WSW 5.8 mph - N/A   Clear
8:55 PM 30.9 °F 26.2 °F 24.1 °F 76% 29.86 in 10.0 mi SW 4.6 mph - N/A   Clear
9:55 PM 30.0 °F 24.1 °F 23.0 °F 75% 29.84 in 10.0 mi SSW 5.8 mph - N/A   Clear
10:55 PM 30.0 °F 23.2 °F 23.0 °F 75% 29.83 in 10.0 mi South 6.9 mph - N/A   Clear
11:55 PM 30.0 °F 21.7 °F 23.0 °F 75% 29.81 in 10.0 mi South 9.2 mph - N/A   Clear